When you browse on this site, cookies collect data to enhance your experience and personalize the content and advertising you see.
Visit our Privacy Policy to learn more. By continuing to use the site, you agree to this use of cookies and data.
  • In Spain
  • List of Countries
  • For 7 days
  • Water Temperature
  • Satellite Maps
  • Weather Map
  • Weather Widgets
  • user-avatar
    Login

    Hourly Weather Casper

    Today, 22 April, Monday

    Time Temperature Precipitation Wind Pressure Humidity
    00:00 +3°C° 0.1 mm 5 mps 631 mmHg 87%
    01:00 +4°C° 0.1 mm 4 mps 631 mmHg 86%
    02:00 +3°C° 0.1 mm 4 mps 631 mmHg 84%
    03:00 +3°C° 0 mm 3 mps 632 mmHg 86%
    04:00 +3°C° 0 mm 3 mps 632 mmHg 87%
    05:00 +3°C° 0 mm 3 mps 632 mmHg 89%
    06:00 +3°C° 0 mm 3 mps 632 mmHg 86%
    07:00 +4°C° 0 mm 3 mps 633 mmHg 84%
    08:00 +4°C° 0 mm 4 mps 633 mmHg 81%
    09:00 +6°C° 0 mm 4 mps 633 mmHg 73%
    10:00 +7°C° 0 mm 4 mps 634 mmHg 65%
    11:00 +8°C° 0 mm 4 mps 634 mmHg 58%
    12:00 +10°C° 0 mm 4 mps 634 mmHg 54%
    13:00 +11°C° 0 mm 3 mps 634 mmHg 51%
    14:00 +12°C° 0 mm 3 mps 634 mmHg 48%
    15:00 +12°C° 0 mm 3 mps 633 mmHg 48%
    16:00 +12°C° 0 mm 3 mps 633 mmHg 48%
    17:00 +12°C° 0 mm 3 mps 633 mmHg 48%
    18:00 +12°C° 0 mm 2 mps 633 mmHg 52%
    19:00 +10°C° 0 mm 2 mps 632 mmHg 57%
    20:00 +9°C° 0 mm 2 mps 632 mmHg 61%
    21:00 +8°C° 0 mm 2 mps 632 mmHg 63%
    22:00 +8°C° 0 mm 2 mps 632 mmHg 65%
    23:00 +7°C° 0 mm 2 mps 632 mmHg 67%

    Tomorrow, 23 April, Tuesday

    Time Temperature Precipitation Wind Pressure Humidity
    00:00 +7°C° 0 mm 2 mps 631 mmHg 69%
    01:00 +6°C° 0 mm 2 mps 631 mmHg 70%
    02:00 +5°C° 0 mm 3 mps 631 mmHg 72%
    03:00 +6°C° 0 mm 2 mps 630 mmHg 73%
    04:00 +5°C° 0 mm 2 mps 630 mmHg 75%
    05:00 +5°C° 0 mm 2 mps 630 mmHg 76%
    06:00 +7°C° 0 mm 2 mps 631 mmHg 69%
    07:00 +9°C° 0 mm 3 mps 631 mmHg 62%
    08:00 +11°C° 0 mm 3 mps 632 mmHg 54%
    09:00 +12°C° 0 mm 3 mps 632 mmHg 48%
    10:00 +15°C° 0 mm 2 mps 632 mmHg 41%
    11:00 +16°C° 0 mm 2 mps 632 mmHg 34%
    12:00 +17°C° 0 mm 2 mps 632 mmHg 31%
    13:00 +19°C° 0 mm 1 mps 632 mmHg 27%
    14:00 +20°C° 0 mm 1 mps 632 mmHg 24%
    15:00 +20°C° 0 mm 1 mps 632 mmHg 23%
    16:00 +20°C° 0 mm 1 mps 631 mmHg 23%
    17:00 +20°C° 0 mm 1 mps 631 mmHg 22%
    18:00 +19°C° 0 mm 1 mps 630 mmHg 25%
    19:00 +18°C° 0 mm 1 mps 630 mmHg 28%
    20:00 +16°C° 0 mm 2 mps 630 mmHg 31%
    21:00 +15°C° 0 mm 2 mps 630 mmHg 33%
    22:00 +14°C° 0 mm 2 mps 629 mmHg 35%
    23:00 +13°C° 0 mm 2 mps 629 mmHg 37%

    Day after tomorrow, 24 April, Wednesday

    Time Temperature Precipitation Wind Pressure Humidity
    00:00 +12°C° 0 mm 1 mps 629 mmHg 39%
    01:00 +12°C° 0 mm 1 mps 629 mmHg 42%
    02:00 +11°C° 0 mm 1 mps 628 mmHg 44%
    03:00 +11°C° 0 mm 1 mps 628 mmHg 46%
    04:00 +10°C° 0 mm 1 mps 628 mmHg 47%
    05:00 +10°C° 0 mm 1 mps 628 mmHg 49%
    06:00 +12°C° 0 mm 1 mps 629 mmHg 44%
    07:00 +14°C° 0 mm 1 mps 630 mmHg 39%
    08:00 +16°C° 0 mm 2 mps 631 mmHg 35%
    09:00 +17°C° 0 mm 2 mps 631 mmHg 33%
    10:00 +19°C° 0 mm 1 mps 631 mmHg 32%
    11:00 +19°C° 0 mm 1 mps 631 mmHg 31%
    12:00 +19°C° 0 mm 2 mps 631 mmHg 30%
    13:00 +20°C° 0 mm 3 mps 630 mmHg 28%
    14:00 +21°C° 0 mm 3 mps 630 mmHg 27%
    15:00 +21°C° 0 mm 3 mps 630 mmHg 26%
    16:00 +21°C° 0 mm 4 mps 630 mmHg 26%
    17:00 +22°C° 0 mm 4 mps 630 mmHg 26%
    18:00 +19°C° 0.2 mm 5 mps 630 mmHg 40%
    19:00 +15°C° 0.2 mm 6 mps 629 mmHg 55%
    20:00 +10°C° 0.2 mm 7 mps 629 mmHg 69%
    21:00 +10°C° 0.2 mm 5 mps 630 mmHg 71%
    22:00 +10°C° 0.2 mm 4 mps 630 mmHg 74%
    23:00 +10°C° 0.2 mm 3 mps 631 mmHg 76%

    25 April, Thursday

    Time Temperature Precipitation Wind Pressure Humidity
    00:00 +9°C° 0 mm 2 mps 630 mmHg 78%
    01:00 +10°C° 0 mm 1 mps 630 mmHg 81%
    02:00 +8°C° 0 mm 0 mps 630 mmHg 83%
    03:00 +8°C° 0 mm 0 mps 630 mmHg 84%
    04:00 +8°C° 0 mm 0 mps 630 mmHg 86%
    05:00 +7°C° 0 mm 0 mps 630 mmHg 87%
    06:00 +10°C° 0 mm 1 mps 631 mmHg 78%
    07:00 +12°C° 0 mm 1 mps 632 mmHg 69%
    08:00 +14°C° 0 mm 2 mps 633 mmHg 60%
    09:00 +15°C° 0 mm 2 mps 633 mmHg 53%
    10:00 +17°C° 0 mm 2 mps 633 mmHg 46%
    11:00 +19°C° 0 mm 3 mps 633 mmHg 39%
    12:00 +20°C° 0 mm 3 mps 633 mmHg 36%
    13:00 +21°C° 0 mm 3 mps 633 mmHg 32%
    14:00 +22°C° 0 mm 4 mps 633 mmHg 29%
    15:00 +22°C° 0 mm 3 mps 632 mmHg 27%
    16:00 +22°C° 0 mm 3 mps 632 mmHg 25%
    17:00 +22°C° 0 mm 3 mps 632 mmHg 23%
    18:00 +20°C° 0 mm 2 mps 632 mmHg 29%
    19:00 +18°C° 0 mm 2 mps 631 mmHg 34%
    20:00 +16°C° 0 mm 1 mps 631 mmHg 40%
    21:00 +15°C° 0 mm 2 mps 630 mmHg 44%
    22:00 +14°C° 0 mm 2 mps 630 mmHg 48%
    23:00 +14°C° 0 mm 2 mps 630 mmHg 53%

    26 April, Friday

    Time Temperature Precipitation Wind Pressure Humidity
    00:00 +13°C° 0 mm 2 mps 629 mmHg 58%
    01:00 +13°C° 0 mm 2 mps 629 mmHg 64%
    02:00 +12°C° 0 mm 2 mps 628 mmHg 70%
    03:00 +12°C° 0 mm 2 mps 628 mmHg 69%
    04:00 +12°C° 0 mm 2 mps 628 mmHg 69%
    05:00 +12°C° 0 mm 2 mps 628 mmHg 68%
    06:00 +13°C° 0 mm 4 mps 628 mmHg 61%
    07:00 +15°C° 0 mm 6 mps 629 mmHg 54%
    08:00 +17°C° 0 mm 7 mps 629 mmHg 46%
    09:00 +18°C° 0 mm 8 mps 629 mmHg 42%
    10:00 +21°C° 0 mm 10 mps 629 mmHg 37%
    11:00 +22°C° 0 mm 11 mps 629 mmHg 33%
    12:00 +23°C° 0 mm 11 mps 629 mmHg 30%
    13:00 +24°C° 0 mm 12 mps 628 mmHg 27%
    14:00 +24°C° 0 mm 12 mps 628 mmHg 25%
    15:00 +24°C° 0 mm 12 mps 628 mmHg 25%
    16:00 +23°C° 0 mm 12 mps 627 mmHg 26%
    17:00 +23°C° 0 mm 12 mps 627 mmHg 26%
    18:00 +21°C° 0 mm 10 mps 627 mmHg 29%
    19:00 +19°C° 0 mm 9 mps 626 mmHg 32%
    20:00 +17°C° 0 mm 8 mps 626 mmHg 35%
    21:00 +17°C° 0.1 mm 7 mps 626 mmHg 38%
    22:00 +16°C° 0.1 mm 7 mps 626 mmHg 42%
    23:00 +15°C° 0.1 mm 6 mps 626 mmHg 46%

    27 April, Saturday

    Time Temperature Precipitation Wind Pressure Humidity
    00:00 +14°C° 0 mm 6 mps 626 mmHg 48%
    01:00 +13°C° 0 mm 5 mps 626 mmHg 50%
    02:00 +12°C° 0 mm 5 mps 626 mmHg 53%
    03:00 +10°C° 0 mm 4 mps 626 mmHg 60%
    04:00 +8°C° 0 mm 3 mps 626 mmHg 67%
    05:00 +7°C° 0 mm 3 mps 626 mmHg 74%
    06:00 +7°C° 0 mm 2 mps 627 mmHg 69%
    07:00 +8°C° 0 mm 2 mps 627 mmHg 65%
    08:00 +9°C° 0 mm 2 mps 628 mmHg 60%
    09:00 +10°C° 0 mm 3 mps 629 mmHg 50%
    10:00 +12°C° 0 mm 5 mps 629 mmHg 39%
    11:00 +14°C° 0 mm 6 mps 630 mmHg 29%
    12:00 +14°C° 0 mm 6 mps 630 mmHg 26%
    13:00 +15°C° 0 mm 6 mps 629 mmHg 24%
    14:00 +16°C° 0 mm 7 mps 629 mmHg 21%
    15:00 +16°C° 0 mm 6 mps 629 mmHg 22%
    16:00 +16°C° 0 mm 5 mps 629 mmHg 23%
    17:00 +17°C° 0 mm 4 mps 629 mmHg 23%
    18:00 +14°C° 0 mm 4 mps 629 mmHg 27%
    19:00 +12°C° 0 mm 4 mps 629 mmHg 30%
    20:00 +11°C° 0 mm 4 mps 629 mmHg 33%
    21:00 +10°C° 0 mm 4 mps 629 mmHg 36%
    22:00 +8°C° 0 mm 4 mps 628 mmHg 38%
    23:00 +6°C° 0 mm 4 mps 628 mmHg 40%
    Show more